Wind_Gust
8 8 6 6 6 6 7 12 12 8 9 11 11 11 13 9 9 11 12 7 9 6 6 6 6 9 16 9 14 11 7 10 8 19 13 9 13 22 21 28 29 27 28 28 27 29 28 24 24 26 25 25 25 23 24 26 27 27 25 24 24 24 24 23 24 24 24 24 23 23 24 24 23 22 23 22 20 18 21 23 24 25 25 25 25 25 25 25 25 25 24 24 23 23 22 21 20
7 7 5 5 6 8 11 8 12 6 8 8 16 9 11 7 8 11 10 8 7 7 9 16 12 10 8 7 7 7 9 8 8 8 6 12 17 18 24 28 28 29 28 26 26 27 26 29 25 25 25 26 26 25 25 26 26 26 25 24 23 23 23 23 23 23 23 23 23 24 23 23 23 23 21 21 18 16 17 21 24 24 25 25 25 25 25 24 24 23 24 23 22 21 21 19 18
7 7 7 6 8 9 11 9 9 6 9 14 12 15 9 10 12 7 11 12 12 13 15 17 12 11 9 7 13 8 8 8 9 9 12 18 23 20 25 26 26 26 27 26 26 27 26 27 23 24 26 26 26 26 26 26 26 25 25 24 23 23 23 23 23 23 23 22 23 23 23 23 24 24 23 21 19 16 16 17 21 24 25 24 24 24 24 23 23 23 23 22 21 21 20 18 16
8 6 8 7 11 8 10 8 8 12 11 9 13 9 11 9 10 10 9 11 14 16 16 14 11 8 9 12 8 6 6 6 6 12 20 25 21 23 25 25 24 26 25 26 24 25 25 27 24 23 25 24 25 27 27 27 26 25 24 23 23 23 23 22 22 21 21 22 22 22 23 23 23 24 23 22 19 17 16 17 19 22 22 22 22 23 22 21 22 22 22 21 21 20 18 16 14
8 5 6 7 11 10 10 6 7 8 17 13 8 7 10 10 10 9 11 10 16 19 16 10 10 8 9 8 7 9 8 8 10 9 20 15 18 24 25 24 23 25 24 25 24 25 25 27 24 23 24 24 25 26 26 26 25 24 23 24 23 24 23 22 21 21 22 22 21 21 22 22 24 24 24 21 18 17 17 16 17 18 19 19 19 20 20 20 21 21 21 21 20 19 16 14 11
7 6 6 8 6 10 15 10 10 16 10 10 10 8 7 8 9 12 20 16 18 20 14 12 10 8 8 8 7 8 6 7 9 9 18 17 24 25 25 22 24 24 24 23 23 23 28 26 24 23 23 24 25 26 27 26 24 23 23 23 22 22 21 20 18 20 20 20 20 22 23 23 23 23 21 21 19 19 17 18 16 18 19 19 20 20 20 19 20 20 20 21 20 17 14 11 9
11 9 10 9 11 10 10 9 12 12 13 12 14 15 13 10 12 14 22 20 8 10 7 9 8 8 10 10 10 11 8 8 14 14 13 22 25 25 24 24 24 25 25 25 23 25 29 23 22 22 24 26 25 27 27 26 25 23 24 23 22 21 20 18 16 17 20 21 22 22 22 21 21 21 20 20 20 20 20 19 19 19 19 18 19 19 19 20 19 20 20 20 17 14 12 10 9
6 9 7 9 9 8 8 8 13 10 11 15 10 14 11 15 15 15 19 11 13 8 7 6 9 13 8 6 8 10 12 9 12 17 18 24 24 23 23 24 26 25 25 24 23 23 25 21 22 22 24 25 28 29 27 26 24 23 23 22 20 20 19 18 16 15 16 21 23 22 22 21 21 20 21 20 21 21 20 19 19 19 18 18 18 19 20 20 20 20 20 17 15 14 12 11 10
7 12 7 10 8 7 7 12 11 9 16 11 16 11 14 17 17 17 18 15 14 14 18 16 13 13 9 8 8 8 12 11 16 20 22 23 23 22 24 23 25 25 24 25 24 24 26 20 21 22 24 25 26 27 26 26 23 22 22 21 18 17 17 18 18 15 15 16 19 21 21 21 20 20 19 20 20 19 19 20 18 19 18 18 19 20 20 19 20 19 18 16 15 13 12 11 12
9 9 9 9 8 11 8 11 10 10 12 7 14 15 16 15 15 13 19 20 15 11 14 7 7 13 10 6 10 9 10 11 18 21 21 23 23 22 21 22 23 26 23 24 24 24 24 21 20 21 21 23 25 25 24 23 22 21 20 19 16 16 16 16 14 16 18 18 16 18 19 19 19 20 20 19 19 17 18 19 19 19 19 19 19 19 20 19 19 18 16 15 14 13 12 12 13
9 11 7 9 6 8 15 11 12 12 9 12 16 12 15 14 11 15 14 21 11 13 6 12 13 12 11 7 8 8 10 13 18 22 21 22 23 22 22 21 22 24 27 24 23 23 26 26 23 19 20 21 22 23 22 22 20 19 18 17 17 16 15 15 17 18 18 18 18 19 20 19 19 19 18 19 18 17 17 17 19 19 19 19 19 19 19 18 16 15 15 14 13 12 10 11 12
9 7 7 8 10 12 9 12 11 12 13 10 12 5 7 12 10 15 17 17 12 9 13 17 16 17 12 11 9 10 11 12 17 20 21 21 22 22 21 22 21 20 24 26 24 24 24 24 25 21 19 20 21 22 22 21 20 19 19 18 17 16 15 15 17 19 20 20 19 20 19 18 19 18 16 16 17 17 17 18 20 20 19 18 18 18 17 16 15 15 14 14 13 11 10 11 11
9 6 9 9 8 9 7 10 11 10 15 9 8 8 9 11 12 13 12 12 13 13 10 18 11 9 13 12 9 10 12 11 14 19 22 22 20 21 20 22 23 22 24 25 26 25 23 23 25 25 21 21 20 20 20 20 20 20 19 18 17 16 16 17 19 19 19 19 19 20 19 18 18 17 17 17 17 17 16 17 19 20 19 18 18 17 16 16 16 16 15 13 12 11 10 11 11
12 11 12 10 8 8 8 9 7 12 11 8 8 10 8 11 12 10 10 13 9 8 11 10 16 8 9 12 8 11 15 13 17 18 21 20 20 22 20 23 23 23 23 24 26 27 24 23 25 24 26 25 26 22 20 19 19 19 19 18 17 16 16 16 17 17 17 17 16 16 17 18 18 18 16 16 16 13 13 15 17 19 19 18 17 17 17 16 16 16 14 13 11 10 9 10 11
9 7 9 6 7 6 9 14 7 9 10 7 7 14 17 5 9 6 9 11 8 8 8 6 6 11 12 17 13 19 19 17 17 18 19 21 22 21 21 20 21 21 24 24 26 27 25 24 25 23 22 23 24 23 23 24 19 19 19 18 17 16 15 16 17 16 17 17 17 17 18 20 19 18 17 16 14 12 14 17 16 17 19 18 17 16 16 16 15 14 14 12 10 9 9 9 9
9 9 8 11 12 10 11 12 7 9 12 6 7 9 19 9 7 13 11 10 6 8 7 13 7 9 11 18 9 20 23 21 19 19 20 19 23 20 21 23 23 24 22 25 24 24 25 24 23 24 23 23 22 22 23 24 21 19 19 19 18 16 15 16 17 16 17 17 17 17 16 20 18 18 19 20 17 15 15 16 16 16 18 17 16 16 16 16 15 13 11 10 10 8 9 9 8
7 8 10 7 18 13 10 12 13 12 9 9 10 16 18 24 12 7 6 8 11 7 9 7 8 9 8 7 16 25 26 22 21 21 21 22 20 22 21 22 26 23 22 22 22 25 25 24 24 23 22 22 23 23 22 20 21 22 18 19 19 15 15 17 17 18 15 17 19 17 14 16 16 19 18 20 19 20 15 15 17 17 17 16 15 15 15 15 14 11 10 10 10 8 8 9 8
8 13 9 15 12 11 10 13 15 8 11 15 16 12 15 20 21 13 10 9 7 6 8 10 7 8 8 11 21 26 27 25 25 24 23 24 24 22 25 26 27 24 25 21 23 24 26 25 24 23 23 23 22 23 20 20 19 17 20 22 22 20 17 15 18 18 15 20 18 18 16 15 16 16 17 15 19 20 19 13 14 15 14 15 16 15 14 13 12 11 10 10 9 8 7 11 12
11 8 10 23 10 11 10 9 8 10 15 17 13 7 9 16 11 13 16 9 6 8 8 10 10 10 13 18 24 28 27 24 25 24 25 26 27 29 29 28 25 27 25 24 23 26 24 24 22 23 21 22 21 20 19 20 18 16 18 20 19 16 18 18 18 17 18 19 19 17 15 16 17 16 17 17 17 14 19 14 15 16 15 15 14 13 13 12 12 10 8 8 8 7 9 9 10
8 11 19 16 9 6 9 9 8 9 12 16 17 11 10 16 8 10 11 14 8 12 10 8 11 8 13 19 25 27 25 24 24 24 28 28 28 29 26 26 26 25 27 25 23 21 23 22 22 21 21 20 20 21 19 19 15 16 15 17 17 18 18 17 16 16 17 18 19 16 16 17 17 16 16 19 16 18 18 13 16 16 15 13 13 12 11 11 11 9 8 6 4 5 8 10 11
11 13 20 10 10 7 7 8 11 12 8 13 14 13 16 7 10 9 11 16 11 10 13 13 14 12 15 18 22 23 23 21 22 23 26 28 28 26 19 19 21 24 25 23 19 18 18 20 19 20 21 20 20 22 21 20 19 17 16 17 18 17 16 19 18 18 18 19 19 17 17 15 16 17 17 17 17 17 17 17 17 15 13 13 7 11 11 12 9 10 9 6 8 7 8 9 10
12 17 11 12 7 8 8 10 8 11 5 8 12 17 17 15 8 8 12 13 18 11 9 17 11 12 16 17 18 17 16 15 15 16 17 21 23 18 18 16 15 18 19 19 19 21 18 18 18 21 21 19 18 23 23 23 21 18 17 18 17 16 17 18 18 17 18 17 17 17 17 15 13 16 16 17 17 17 17 16 14 13 12 11 10 11 10 10 10 8 6 6 6 6 7 8 8
19 15 10 9 12 14 7 9 9 5 13 12 14 10 12 12 19 9 12 15 14 9 8 10 12 16 19 19 19 18 15 14 13 13 10 14 15 15 18 17 12 16 14 16 17 19 19 18 19 21 23 21 19 18 18 19 18 17 16 18 19 17 17 17 16 16 15 17 17 16 16 15 14 16 16 16 16 16 17 15 14 12 13 13 10 9 9 9 8 8 6 6 6 7 9 10 9
16 19 9 6 7 10 10 15 8 11 7 14 11 13 13 11 20 7 12 16 12 11 7 14 19 21 23 21 17 19 18 15 13 19 23 25 21 14 18 20 21 17 12 17 16 20 18 17 16 18 21 19 18 20 18 16 17 20 21 19 17 20 18 17 14 14 15 15 16 16 15 15 16 16 15 16 15 15 15 15 15 14 13 11 10 7 9 8 9 7 7 6 8 8 9 9 8
22 21 5 9 7 9 10 10 10 11 12 13 11 11 13 6 14 11 18 13 9 10 17 22 21 23 23 22 21 21 19 22 25 23 21 15 25 23 20 15 12 18 16 13 12 18 18 17 19 22 20 18 18 18 17 17 18 20 19 18 18 15 14 13 13 14 12 12 13 16 15 15 15 15 16 15 15 14 14 14 14 14 11 8 8 9 8 9 9 8 7 6 7 8 9 10 9
16 15 10 14 17 14 9 12 14 12 10 8 9 15 11 11 7 13 17 13 12 17 21 23 23 24 22 20 19 18 19 21 21 22 21 23 27 28 24 18 15 8 10 10 13 14 16 16 18 20 20 19 20 18 15 16 19 18 19 16 17 17 16 13 14 12 9 8 12 13 15 16 15 16 16 16 16 14 12 12 12 13 9 7 8 10 9 10 10 9 7 7 9 9 10 10 8
7 8 10 12 11 8 7 10 11 6 10 8 12 14 11 6 6 15 13 13 17 19 21 22 24 22 20 20 17 15 19 20 20 15 9 11 25 29 29 22 15 13 14 12 11 10 15 18 19 20 18 19 19 18 17 19 19 19 21 19 16 17 15 15 13 16 15 14 10 14 15 14 15 14 15 16 13 14 13 13 12 10 8 8 8 10 9 9 10 8 7 8 8 9 11 9 9
7 9 8 9 9 9 11 9 15 7 12 10 13 12 6 8 6 16 14 13 17 21 21 23 22 21 21 19 19 13 14 16 16 15 17 17 12 22 28 32 33 21 16 18 17 16 19 21 22 20 19 20 19 19 18 18 20 20 18 16 13 15 15 15 14 16 17 15 14 13 14 14 13 14 15 14 15 15 14 13 12 11 9 8 9 9 9 9 9 11 9 8 8 9 10 10 12
7 5 15 9 11 13 7 11 7 6 14 11 11 10 11 5 13 11 10 13 18 21 22 21 20 20 20 19 17 16 16 16 17 16 21 20 18 9 9 11 13 26 25 28 24 23 26 24 23 21 20 19 19 17 19 19 15 14 17 15 16 17 15 16 15 16 14 14 13 13 13 14 13 14 14 14 14 14 12 13 12 11 10 8 9 10 10 9 9 10 10 8 8 9 10 11 12
8 6 6 10 10 13 8 6 6 7 11 6 9 18 6 10 15 14 9 15 20 21 21 20 19 19 21 18 17 15 14 18 16 17 18 14 13 10 10 8 8 7 7 16 20 24 20 17 17 18 18 19 17 18 17 21 22 22 19 17 16 17 15 17 17 16 14 14 15 14 13 14 13 13 15 13 13 13 12 12 12 12 11 10 10 10 10 8 9 9 9 8 8 10 11 10 10
11 6 6 6 10 11 7 8 8 8 6 7 10 16 13 13 13 10 8 14 20 23 21 22 20 18 19 18 16 17 18 19 21 17 13 9 8 10 8 9 11 10 7 7 13 15 16 16 14 14 17 15 17 16 16 18 18 19 17 17 15 14 16 15 14 14 13 14 15 14 14 14 13 13 14 14 12 12 13 12 12 11 11 11 11 10 10 9 8 8 8 9 10 11 11 11 12
7 10 11 7 8 8 18 8 6 13 8 9 11 10 13 12 15 12 8 12 16 20 20 21 20 19 19 19 16 17 20 17 16 15 12 10 9 9 8 9 10 11 12 15 14 15 17 14 17 17 16 16 14 14 14 14 16 14 16 14 15 14 15 15 14 14 13 14 14 14 14 14 13 13 14 14 14 13 13 12 11 11 12 11 11 11 10 10 9 9 8 7 11 11 12 12 11
10 10 8 9 7 8 11 8 6 5 7 9 8 11 11 9 10 11 11 13 14 18 19 18 21 21 20 21 16 16 19 19 18 14 12 11 10 10 10 12 13 13 15 19 19 18 17 17 17 20 19 18 19 15 14 14 14 15 15 15 16 16 14 15 14 13 13 14 14 14 14 14 13 13 12 14 13 13 12 11 11 12 11 11 11 11 11 10 10 10 9 8 8 12 13 13 12
8 7 10 6 11 7 8 13 9 12 11 9 11 9 11 16 11 9 11 13 16 18 19 19 22 22 21 20 20 18 20 22 22 22 17 11 10 11 12 12 13 14 16 15 17 18 19 16 15 20 17 18 18 18 17 15 15 14 12 14 15 15 14 13 12 13 13 12 12 13 14 14 13 13 12 13 11 12 12 11 12 12 12 12 12 12 11 10 9 10 11 9 10 12 13 14 13
10 10 10 10 8 8 7 9 7 13 7 11 7 11 16 17 10 11 11 13 14 18 20 20 21 21 24 20 19 17 20 21 19 21 17 13 13 12 13 12 13 14 15 18 17 16 18 16 17 21 18 18 17 17 17 15 14 12 13 14 13 12 12 11 11 12 12 13 14 15 15 15 14 13 13 13 13 13 12 12 13 12 12 12 12 12 12 11 10 9 10 11 10 10 13 13 14
8 8 6 7 11 8 7 9 12 8 16 18 13 14 14 15 16 11 10 12 14 17 17 17 19 21 22 22 18 20 19 17 13 13 15 16 14 14 14 14 13 14 16 17 18 19 18 18 16 19 19 18 17 15 17 16 12 12 15 12 12 12 13 11 11 12 12 13 14 15 14 13 14 13 14 14 12 13 13 13 13 12 11 12 13 13 12 13 11 11 11 12 13 13 13 14 15
8 7 6 11 11 9 6 9 13 5 12 14 13 11 11 16 17 12 12 12 14 18 20 20 21 22 24 23 21 20 24 21 11 11 14 16 16 16 15 15 15 13 15 17 18 19 19 20 18 18 16 17 18 19 20 18 16 13 14 17 16 15 14 11 11 11 13 15 14 14 14 15 13 13 14 14 13 13 13 13 13 12 13 13 14 14 13 11 11 11 13 12 14 14 13 13 15
8 8 9 14 9 11 6 12 8 6 9 13 7 10 15 16 15 11 10 13 20 23 23 24 25 26 25 24 24 21 23 10 13 11 13 16 17 15 16 16 15 18 16 16 17 20 18 17 18 18 17 17 18 17 18 19 16 21 19 18 16 16 15 14 13 13 14 13 14 13 13 13 14 14 14 14 13 13 13 14 13 13 14 13 11 11 11 11 12 12 14 14 10 12 12 13 16
6 12 9 13 11 9 12 11 11 9 11 18 6 12 17 18 12 13 12 10 14 21 24 27 29 28 28 28 25 21 22 20 16 14 13 15 15 14 15 16 17 16 17 17 17 18 18 18 15 15 16 18 17 16 17 18 17 16 17 17 18 15 10 12 14 14 14 15 14 14 13 13 15 15 15 15 14 13 13 13 13 12 11 12 13 13 12 12 12 13 14 15 13 9 11 12 12
9 8 10 20 7 10 12 7 7 8 11 11 8 17 20 13 9 10 9 8 10 11 19 23 22 26 28 29 28 27 25 24 19 18 17 16 16 16 16 17 18 17 17 17 16 18 18 16 15 15 19 18 17 17 14 16 15 14 13 15 14 13 14 14 12 12 13 14 15 13 13 14 15 15 16 16 14 12 12 12 12 11 11 11 11 13 12 12 12 12 12 13 16 14 13 13 9
7 11 13 14 8 11 15 13 8 10 11 8 14 15 18 8 10 10 9 10 10 14 17 21 27 24 19 15 19 22 25 24 19 16 15 15 15 16 16 16 19 18 17 16 16 17 15 16 14 13 16 17 16 17 18 17 18 16 16 16 15 16 14 13 13 13 12 13 14 13 14 14 15 15 15 15 14 12 12 12 11 11 11 10 10 11 12 13 14 14 14 14 15 16 15 13 12
8 11 16 13 13 16 14 6 10 11 12 7 9 13 13 7 11 14 12 10 11 8 14 23 28 27 22 22 23 19 21 20 20 16 15 15 15 15 15 16 19 17 17 15 15 14 14 15 16 14 14 16 17 18 20 19 18 18 20 19 18 16 16 17 17 19 16 16 17 14 13 15 16 14 14 13 13 12 12 12 11 12 11 11 11 11 11 11 12 12 14 13 14 12 15 16 16
6 13 19 21 20 14 8 9 7 11 12 8 7 11 15 9 12 12 12 12 14 11 15 18 21 24 23 22 20 21 21 18 9 13 13 14 15 15 15 15 20 18 16 15 15 14 16 17 16 13 14 14 17 18 19 18 18 19 20 20 19 20 20 17 15 17 17 16 15 14 14 13 13 14 12 11 11 11 11 11 12 11 12 11 10 11 11 12 13 13 11 12 14 14 13 15 16
13 8 11 11 12 13 13 13 15 15 8 9 6 13 19 18 14 8 12 16 16 13 13 15 18 18 18 17 19 19 20 20 16 14 13 13 14 15 16 15 18 20 16 16 14 16 17 16 14 13 13 15 17 19 20 20 20 19 17 16 17 18 18 18 16 16 13 14 15 13 13 12 10 11 12 12 11 11 11 10 10 9 10 10 11 11 10 11 10 10 11 11 11 13 15 13 14
12 6 13 13 16 13 11 13 12 8 8 16 7 8 13 14 12 8 10 15 13 12 10 10 12 13 15 17 15 15 16 17 15 13 13 14 16 13 16 15 16 20 18 18 15 16 17 16 14 13 15 15 17 18 19 20 18 19 17 16 15 15 15 17 17 16 15 13 13 12 12 12 8 7 9 10 9 10 11 11 10 10 9 9 9 9 7 9 9 10 12 12 12 13 12 10 11
11 11 9 9 9 8 11 11 12 9 9 14 11 9 15 14 10 9 8 9 15 13 16 9 9 11 12 11 11 13 12 12 11 10 12 12 12 11 16 16 17 17 17 16 15 17 17 17 15 15 15 15 17 19 18 17 15 14 15 13 14 16 17 17 17 17 15 14 14 13 11 10 9 9 8 9 10 10 11 11 11 10 9 8 8 8 8 8 8 9 11 12 12 11 11 12 13
10 13 11 9 10 8 9 8 8 10 11 14 10 13 12 16 6 8 8 11 11 17 14 11 9 11 9 9 10 12 13 9 9 10 11 12 11 11 17 16 15 15 15 16 15 16 16 15 16 17 16 16 17 20 18 18 15 15 15 15 16 18 19 19 20 17 16 15 16 12 11 10 9 10 10 9 8 9 10 10 10 10 9 8 9 10 9 9 8 8 9 10 11 12 11 10 9
6 6 7 9 8 8 7 7 7 9 16 8 10 11 12 15 7 8 9 13 12 14 16 12 10 14 13 9 14 14 14 13 12 12 11 11 13 10 17 14 16 13 15 16 15 16 17 16 16 16 15 16 17 19 18 16 15 15 14 16 17 17 19 22 22 20 18 16 15 14 11 10 9 9 9 10 9 9 10 10 9 9 9 8 8 7 8 8 8 9 10 10 10 10 9 11 10
11 9 8 10 8 7 10 10 11 16 15 9 8 9 9 20 9 12 17 16 16 15 16 12 10 11 14 13 15 17 17 18 20 18 17 12 8 10 8 17 16 13 13 16 15 15 16 16 15 17 16 17 17 17 15 14 14 15 15 16 15 16 16 15 17 17 14 15 15 13 13 12 11 10 9 10 9 9 10 11 10 10 10 8 8 8 7 7 8 8 9 10 10 11 11 11 12
15 18 15 14 11 8 6 8 7 12 13 9 7 7 13 9 8 12 15 16 17 17 12 10 9 11 16 17 18 18 20 20 17 16 20 17 17 13 12 12 18 18 14 17 15 14 15 15 13 14 16 17 16 14 13 13 14 14 14 15 15 16 14 14 15 16 14 13 12 13 12 12 11 10 10 9 10 10 9 9 9 9 9 10 9 8 7 7 6 8 9 10 10 8 8 9 9
20 6 20 14 18 18 12 15 15 14 10 7 7 12 13 12 7 12 12 14 16 18 16 12 15 18 17 16 13 14 16 17 19 18 17 15 17 16 15 15 14 19 17 17 17 14 13 15 12 12 11 14 13 13 12 12 13 13 13 14 15 14 15 15 14 15 15 15 12 12 10 9 10 9 10 10 10 9 9 9 9 10 10 10 10 9 8 8 8 9 9 9 9 8 8 8 8
7 8 9 9 15 13 13 7 9 7 7 6 11 11 8 9 8 8 9 14 19 18 17 17 17 18 17 12 14 14 15 16 19 20 21 17 16 13 13 14 9 16 20 18 17 18 15 13 16 15 14 8 9 11 14 15 13 13 13 14 15 14 14 14 13 13 13 13 14 13 12 9 8 10 9 11 10 10 11 11 10 11 11 11 10 10 9 9 8 9 10 10 11 9 10 10 8
15 13 17 12 9 13 14 6 9 4 7 8 5 12 9 10 9 8 13 16 17 16 15 13 15 14 12 12 14 15 15 16 17 18 17 16 16 14 16 16 12 13 19 18 17 19 18 18 20 21 20 18 20 17 13 14 14 14 15 16 15 15 16 16 16 15 14 11 10 9 11 10 10 10 11 10 12 10 10 12 12 11 10 10 10 10 10 10 9 9 10 11 11 10 10 11 8
20 16 15 9 7 10 10 12 6 5 11 10 7 6 10 10 12 9 14 17 14 14 13 10 11 17 17 14 15 16 16 16 16 17 16 15 14 13 16 17 12 12 16 14 17 17 19 18 18 22 23 23 19 11 11 13 15 14 15 15 15 16 16 15 15 16 14 14 11 10 10 11 10 11 11 11 11 12 11 10 12 11 10 10 10 9 11 11 10 11 11 11 10 10 11 10 9
9 8 11 16 9 10 6 10 6 7 8 8 8 7 9 12 7 9 12 15 14 12 12 12 15 15 16 16 15 15 14 15 17 17 16 15 15 16 16 14 15 14 11 17 16 16 15 15 15 17 20 19 14 11 12 11 13 13 14 16 16 15 14 14 14 15 15 16 15 13 12 12 12 12 13 13 12 13 12 11 11 12 11 11 10 10 10 10 9 11 10 11 9 9 11 11 9
7 8 12 8 9 7 14 14 9 11 5 4 6 7 12 9 8 7 11 11 11 11 10 11 15 15 14 15 15 15 14 13 13 17 16 14 14 15 16 19 18 18 15 13 19 19 17 16 15 13 11 9 11 13 12 12 11 10 11 12 12 14 15 15 15 16 15 15 15 15 14 13 13 12 13 13 14 13 13 13 12 12 12 11 12 10 11 11 10 9 9 11 9 9 12 11 10
10 11 8 9 7 7 11 8 7 12 12 9 8 9 10 8 7 7 9 10 9 9 10 12 11 12 15 16 16 15 14 13 12 11 10 9 12 12 11 14 16 15 17 16 13 19 20 17 15 15 16 14 13 9 10 12 13 13 14 14 14 13 13 13 14 14 15 14 13 13 14 13 13 12 13 13 13 13 13 13 13 13 14 13 12 11 10 11 11 10 10 10 10 11 12 10 9
6 13 16 16 16 15 13 12 8 7 12 11 11 13 9 7 6 7 9 7 7 8 9 12 11 12 11 11 14 14 12 12 12 11 11 9 6 6 8 10 11 13 19 16 17 20 18 16 18 17 18 18 16 17 13 12 12 14 15 15 14 13 14 14 13 13 12 14 14 13 14 14 13 13 13 14 13 12 11 12 12 12 12 12 12 13 11 12 12 11 10 8 9 11 11 10 9
Wind_Speed
4 3 1 1 0 1 1 2 4 1 1 3 3 4 1 3 3 4 6 1 3 2 1 1 1 3 7 2 7 5 2 4 1 5 1 3 5 13 13 19 19 18 18 16 15 16 18 18 19 19 17 17 17 19 20 22 22 22 21 19 19 19 19 19 20 19 19 18 18 19 19 18 18 17 15 16 15 15 17 18 19 20 20 20 20 20 20 19 19 19 18 18 17 16 15 15 15
2 2 1 1 0 1 3 2 2 1 1 2 6 2 3 1 2 5 4 2 0 1 4 8 5 3 4 1 1 1 4 2 2 2 1 4 9 9 15 19 19 19 17 15 15 15 16 18 19 19 19 19 18 18 20 21 21 21 20 19 19 19 18 18 18 19 19 18 18 18 18 18 18 18 16 15 11 12 13 17 19 19 20 20 20 20 19 19 19 18 18 17 16 16 15 14 14
2 2 1 1 2 2 4 1 2 1 3 6 2 5 3 4 5 0 4 6 7 7 9 11 6 5 4 2 7 2 1 2 3 4 4 10 13 10 16 17 16 17 17 13 14 15 14 17 18 19 19 21 20 20 20 20 21 20 20 19 18 18 18 18 17 18 18 18 19 19 18 19 18 18 17 15 12 12 12 14 17 19 20 19 19 19 19 18 17 18 18 16 15 15 14 13 11
2 1 1 1 3 2 3 1 1 4 4 1 4 2 4 3 4 4 3 6 8 9 7 7 4 3 3 6 2 1 1 1 1 6 6 11 9 13 15 17 15 15 14 12 13 14 14 18 19 18 19 20 20 21 22 21 21 20 19 19 19 18 17 17 18 17 17 18 18 18 18 19 18 18 18 16 13 11 12 13 15 18 18 18 18 18 17 17 17 17 16 16 15 14 13 12 11
3 1 1 1 2 3 2 1 1 2 7 4 1 1 4 4 3 3 6 6 10 12 9 3 3 2 3 3 1 2 2 1 4 5 7 7 10 14 15 15 14 15 14 14 13 14 15 22 19 18 18 19 20 21 21 21 20 19 19 19 19 18 18 18 17 16 17 17 17 17 17 17 19 19 18 17 13 12 13 13 13 14 15 15 15 16 16 15 16 16 16 15 14 13 12 11 9
2 1 1 2 1 2 3 3 3 7 2 2 3 1 1 2 4 7 12 10 11 12 8 6 4 3 2 3 1 2 1 2 3 4 8 7 14 16 17 14 14 14 14 13 13 12 16 21 19 18 19 19 20 21 22 21 19 18 19 18 18 18 16 15 15 17 16 16 16 17 18 19 19 18 17 17 15 14 13 13 13 14 15 16 16 16 15 16 15 15 15 14 14 12 10 8 7
3 3 2 2 3 1 2 3 4 4 4 5 5 7 6 4 6 8 13 12 3 5 2 3 3 3 3 3 3 3 2 3 6 6 7 12 15 16 16 15 15 15 15 13 13 14 19 18 18 18 19 21 21 22 22 20 20 19 19 18 17 17 15 15 13 14 16 17 17 18 17 17 17 17 16 16 16 15 15 14 15 15 15 15 15 15 15 15 15 14 13 13 12 10 9 7 6
1 2 1 2 2 1 2 2 5 2 2 7 4 7 6 8 9 8 12 6 4 2 2 0 4 6 1 1 1 4 5 2 5 10 10 14 15 15 15 14 15 15 15 14 13 13 19 17 18 18 19 21 23 23 22 21 19 18 19 18 16 15 15 14 13 12 14 17 19 17 18 17 17 16 17 17 17 16 15 15 15 15 14 14 15 16 16 15 16 15 13 11 11 10 8 8 7
1 2 1 2 2 1 1 4 4 2 7 5 8 6 8 10 11 9 11 8 8 7 11 9 7 6 3 3 2 2 4 5 9 13 14 15 15 15 11 13 15 14 14 14 13 14 16 16 17 18 20 21 21 21 21 20 19 18 18 17 15 14 13 12 13 12 12 14 16 17 17 17 17 16 16 16 16 15 15 15 14 14 14 14 15 16 16 15 15 14 12 10 10 9 9 9 9
2 2 3 1 1 4 2 3 3 2 4 1 7 8 9 8 8 7 11 12 8 6 8 2 2 6 4 2 4 4 4 6 11 13 13 15 15 14 14 14 15 17 14 14 14 13 13 17 16 17 18 19 20 20 19 19 18 17 17 15 13 13 13 13 12 13 13 12 13 14 15 16 16 16 16 16 15 14 15 15 15 15 14 15 15 15 15 15 14 13 12 10 9 9 9 10 10
2 2 2 2 1 2 6 4 4 5 3 5 8 6 7 7 6 8 8 13 6 6 1 7 6 5 5 1 2 2 4 8 11 14 14 14 15 14 13 13 14 15 16 15 14 13 14 16 17 15 16 18 18 19 18 18 17 16 15 14 14 14 13 12 14 15 15 14 14 15 15 15 16 16 15 15 14 14 14 14 15 14 14 15 15 15 15 14 13 12 11 10 8 7 8 9 10
2 1 1 2 3 4 2 4 4 5 7 4 3 0 1 6 5 7 10 10 6 3 6 10 4 9 6 3 3 4 7 7 11 13 14 13 12 14 13 11 12 13 16 17 15 14 14 14 15 15 15 16 17 18 18 18 17 16 16 15 14 13 13 13 14 16 16 16 16 16 15 15 15 14 13 13 13 14 14 15 16 16 15 14 15 14 13 12 11 11 11 10 8 7 8 9 9
1 0 3 2 2 2 1 3 4 4 7 2 2 3 4 6 6 7 6 6 6 6 4 11 5 3 6 5 3 5 7 7 9 12 13 12 11 11 11 12 14 15 15 16 16 15 15 13 13 14 14 17 16 17 17 17 16 16 16 15 14 13 13 14 15 16 16 16 16 16 15 15 15 14 14 14 14 14 14 14 16 16 15 14 14 13 12 11 11 11 11 10 9 7 8 9 9
3 2 3 3 2 2 2 3 1 5 3 3 2 5 3 5 6 5 4 7 4 2 5 5 8 3 4 4 2 5 7 8 11 12 11 12 11 11 12 13 15 15 15 15 16 16 14 14 14 14 15 15 15 15 16 16 16 16 16 15 14 13 13 13 14 14 14 14 14 13 14 15 15 14 13 13 13 11 11 13 14 16 15 15 14 13 12 12 11 11 10 9 8 8 7 8 9
3 1 2 1 2 0 2 4 2 3 1 0 2 8 9 0 5 2 4 6 3 2 3 1 1 4 2 9 5 9 10 11 12 12 12 13 14 13 14 12 13 13 15 15 16 16 15 14 14 13 14 14 15 12 12 14 15 16 15 14 14 13 12 13 14 13 14 13 14 14 15 16 15 14 13 13 11 10 12 14 13 14 16 14 13 13 12 11 10 10 9 8 7 7 7 7 8
2 2 1 3 4 3 3 5 1 3 1 1 2 4 12 4 2 7 4 5 1 3 0 4 2 2 4 8 2 11 15 14 13 12 11 12 15 12 13 14 13 14 13 15 14 13 14 14 13 12 12 13 13 12 13 14 15 15 15 16 14 13 13 13 14 13 14 13 14 13 13 13 13 12 15 13 14 13 12 12 13 13 15 14 13 13 12 11 10 9 8 7 6 6 7 7 7
2 1 3 1 8 5 2 4 5 3 3 3 5 9 8 11 7 2 1 2 4 3 3 2 2 3 2 1 8 16 16 14 14 14 12 10 10 11 11 12 13 12 9 12 12 13 14 14 15 11 13 14 14 13 12 11 12 16 14 15 14 13 12 14 14 14 13 14 14 13 10 8 8 9 9 11 14 11 12 13 14 14 14 13 12 12 12 10 10 9 8 7 6 5 6 7 7
2 4 2 6 4 4 3 5 5 2 5 8 10 7 9 12 12 5 4 1 2 1 1 4 1 3 3 4 13 16 17 17 16 16 13 13 11 12 12 12 13 12 12 10 12 13 13 13 15 13 12 14 13 11 9 9 9 11 12 13 12 12 13 13 11 10 11 11 14 11 8 7 6 8 9 11 10 11 12 11 12 12 12 12 12 11 10 9 9 8 8 8 6 5 3 4 6
4 2 3 10 2 2 3 1 3 4 8 10 8 3 4 9 6 4 7 5 1 3 3 3 4 4 7 11 15 17 17 15 17 16 17 18 15 17 15 13 13 13 12 10 10 13 12 12 12 13 12 13 13 11 8 9 10 8 10 11 9 12 12 10 9 9 9 10 10 8 7 7 8 7 7 7 8 11 11 11 12 12 12 12 11 10 9 9 8 7 6 6 6 3 3 3 3
2 4 7 6 2 0 2 3 3 4 6 9 11 6 5 9 3 4 5 8 3 6 3 2 4 3 6 11 14 15 15 15 14 15 18 18 18 16 15 14 13 13 11 10 10 8 10 10 12 11 12 12 11 10 9 9 7 8 7 9 8 9 8 8 8 8 8 10 9 8 7 8 8 8 11 13 12 8 9 10 13 13 12 11 10 8 8 7 7 6 5 4 4 2 3 4 4
3 4 7 1 3 2 2 3 5 7 3 7 8 8 10 2 5 4 6 9 6 5 6 7 7 4 7 11 13 13 10 9 8 6 5 8 11 9 10 10 10 10 9 10 8 9 10 11 9 10 12 11 12 11 11 9 8 7 7 8 7 8 8 7 8 9 9 10 10 8 8 8 7 8 8 8 7 8 8 8 8 7 6 6 5 5 4 4 3 4 3 1 2 2 2 3 3
3 8 5 6 2 2 2 5 5 6 1 4 7 11 9 8 3 4 7 6 7 5 1 8 3 7 10 11 11 9 9 7 5 5 4 4 5 6 4 6 6 6 8 9 10 9 9 9 10 10 12 11 10 12 11 11 10 7 8 8 8 7 8 8 7 8 9 9 9 9 8 7 6 7 7 8 8 8 8 7 6 5 5 5 3 4 3 3 3 2 1 1 2 1 2 2 3
7 7 5 4 6 7 2 4 4 1 6 7 8 5 6 7 10 4 6 9 7 4 4 2 6 10 13 12 12 11 9 8 7 8 5 6 7 8 4 5 3 5 5 8 9 10 10 11 12 12 12 11 11 9 9 10 9 8 7 8 9 8 7 8 8 7 7 9 9 8 7 6 5 7 7 8 8 7 7 6 5 5 5 5 4 3 3 3 2 2 1 0 1 2 3 3 3
8 6 4 0 2 5 5 9 5 6 3 8 5 8 7 6 12 2 6 10 5 5 2 8 12 13 15 13 10 10 10 9 8 12 13 14 14 7 10 12 8 6 5 9 9 9 9 10 9 10 12 10 10 11 9 8 8 9 10 10 9 8 9 7 5 7 7 6 8 7 7 6 6 7 7 7 7 7 7 6 6 6 5 5 4 2 3 3 2 1 1 1 2 2 3 2 2
11 9 0 4 3 4 5 5 5 6 7 7 6 6 8 2 7 6 11 5 5 5 10 13 14 15 14 13 12 12 12 13 15 15 13 8 9 15 13 7 4 5 5 4 4 7 11 10 12 12 11 11 10 10 10 9 8 9 10 10 9 9 6 6 6 3 5 6 6 8 7 7 7 7 7 7 7 7 6 6 6 6 5 3 3 3 2 3 3 1 1 1 1 2 3 3 2
8 9 5 8 10 9 5 7 8 7 4 3 5 9 6 6 3 7 9 8 6 9 12 14 15 16 14 12 11 11 12 14 14 14 13 8 12 13 17 10 8 5 4 1 2 5 7 9 11 13 12 10 11 10 8 8 10 8 9 8 9 8 8 6 8 2 4 4 5 6 7 7 7 8 8 7 8 7 6 5 5 6 3 2 2 4 3 3 3 2 1 1 2 3 3 2 1
2 4 6 7 6 3 3 5 6 0 4 4 6 8 6 2 2 5 8 7 10 11 13 14 15 14 13 12 9 9 12 13 13 9 4 6 11 10 18 14 10 8 8 6 6 3 5 8 9 11 11 10 10 9 8 10 10 9 9 8 7 6 7 6 5 4 5 6 5 6 7 7 7 7 7 8 6 7 6 6 5 4 2 2 2 3 3 3 4 2 2 2 2 2 2 2 1
2 4 4 5 5 4 6 5 9 2 5 5 8 7 2 4 1 6 8 7 9 13 13 15 14 13 12 12 10 7 8 9 8 7 10 8 4 10 13 18 18 11 10 10 9 9 10 12 12 12 11 11 10 10 8 9 8 8 10 7 6 7 7 6 7 5 6 5 6 6 6 6 7 7 8 7 7 7 6 6 5 4 3 2 2 2 3 2 2 4 3 3 2 2 2 3 3
3 1 7 4 4 5 2 5 1 2 6 6 5 5 6 2 7 3 4 6 9 12 14 13 13 12 12 11 8 6 8 9 9 8 10 10 9 3 4 7 4 16 13 17 13 14 16 15 13 13 12 12 11 9 9 9 8 7 9 6 7 8 6 7 6 5 6 6 6 6 6 7 6 7 7 8 7 7 6 6 6 5 4 3 3 4 4 3 3 3 3 2 2 3 3 4 3
3 2 1 4 4 6 3 1 1 3 4 2 4 7 1 3 9 3 2 7 9 11 13 12 11 10 12 10 8 8 7 10 8 6 9 7 4 3 4 5 4 4 2 4 12 15 12 9 9 9 10 9 8 7 8 10 11 10 7 7 8 8 6 7 5 6 6 6 7 7 7 7 7 6 7 7 6 6 6 6 6 5 4 4 3 3 3 2 2 3 3 2 3 3 3 3 3
4 1 1 1 3 2 1 2 3 4 2 2 5 6 5 5 6 4 3 8 9 10 12 13 11 10 10 9 8 9 10 11 10 8 7 4 4 4 4 6 6 5 4 4 7 9 10 9 7 6 8 7 5 6 6 6 9 10 8 8 8 7 6 6 4 7 6 6 7 6 7 7 7 7 7 7 6 6 5 5 5 4 4 4 4 3 2 2 2 2 2 3 3 3 3 3 4
2 3 3 1 2 0 9 4 1 6 2 4 6 4 5 5 6 6 4 6 8 9 11 13 12 11 11 11 8 9 11 9 9 9 6 4 5 3 4 5 5 5 7 9 8 9 10 9 10 9 11 10 7 6 8 7 8 7 7 7 6 5 5 6 6 6 6 6 7 7 7 7 7 7 7 7 6 5 5 5 4 4 5 4 4 4 3 4 3 2 2 2 4 4 4 4 3
2 3 3 2 1 2 4 3 2 0 2 4 3 3 4 3 3 4 6 8 8 9 10 11 14 14 11 11 8 8 10 10 10 8 6 6 4 4 4 6 6 7 9 12 12 11 11 11 11 11 10 11 9 10 7 7 7 7 8 7 7 7 6 6 6 6 6 6 6 6 7 7 7 7 6 6 5 4 4 4 4 5 5 5 5 4 4 4 4 4 3 2 2 4 4 5 4
2 1 3 1 5 1 1 2 3 7 6 3 5 3 5 9 4 3 6 8 9 9 11 12 12 13 13 11 11 10 11 12 12 12 10 6 4 5 5 6 7 8 9 10 11 11 12 9 9 11 9 10 9 9 10 8 7 6 7 6 8 7 6 7 6 6 6 6 6 6 7 6 6 6 6 5 4 4 4 5 5 5 5 5 5 5 4 4 3 4 4 3 3 4 4 5 5
4 4 4 3 3 2 1 2 2 8 2 6 2 5 9 10 5 4 4 7 8 10 10 11 12 12 13 11 11 10 11 12 11 12 11 7 7 5 5 6 7 8 8 11 10 9 10 8 9 12 11 10 10 8 8 6 8 6 7 6 7 6 4 5 5 5 5 6 5 6 6 5 6 6 6 6 5 5 5 5 5 6 5 5 5 5 5 4 4 4 4 5 4 3 4 5 5
3 2 1 2 4 2 1 2 6 3 9 9 7 6 7 9 9 2 3 6 8 10 9 9 11 12 13 12 10 11 11 9 7 8 9 9 7 6 5 5 6 7 8 9 11 10 10 9 9 10 11 9 9 9 8 7 5 5 7 7 5 5 5 5 5 5 5 5 5 6 6 6 6 6 6 6 5 5 6 5 6 6 6 5 6 6 5 5 5 5 5 6 6 6 5 5 6
3 2 2 4 5 3 1 4 7 2 5 7 7 6 5 9 10 5 5 6 8 10 12 12 12 12 13 13 12 11 15 12 6 5 8 10 9 8 7 6 7 7 8 9 10 10 11 10 9 9 9 9 9 9 10 9 8 6 6 8 8 7 6 5 5 5 5 6 6 6 6 6 6 6 7 6 6 6 6 6 6 6 6 6 6 7 6 5 5 5 5 5 6 6 6 5 7
4 4 4 6 3 4 1 6 3 1 4 6 2 4 9 9 8 5 2 6 12 13 14 14 15 16 14 15 14 13 14 4 7 5 8 10 9 9 9 8 9 9 8 9 10 11 11 10 11 9 8 9 10 9 9 9 7 9 9 8 7 7 7 6 6 5 6 6 7 6 6 6 7 7 6 6 6 6 6 6 6 6 6 6 5 5 5 5 6 6 6 5 4 5 5 6 7
2 5 3 6 4 2 6 6 5 3 5 8 1 6 9 11 6 7 4 4 6 11 14 15 16 16 15 15 15 13 13 12 9 8 8 8 9 9 8 9 9 9 9 9 9 11 11 11 9 9 8 10 9 8 8 8 8 8 8 8 8 6 5 5 6 6 7 7 6 7 6 6 7 7 7 7 6 6 6 6 6 5 5 5 5 6 5 5 5 7 8 6 5 3 4 5 6
4 3 4 9 2 3 3 3 2 4 3 4 4 9 10 7 3 4 2 1 4 6 12 14 12 14 15 16 15 13 15 14 11 10 9 9 9 9 9 9 9 9 9 9 10 11 10 9 8 8 10 10 9 9 7 9 9 8 7 8 8 6 6 6 6 6 7 7 7 6 6 6 7 7 8 8 6 5 6 5 5 5 5 5 5 6 6 6 5 6 5 6 7 6 5 5 3
3 6 6 6 2 5 6 3 1 4 6 3 8 7 7 2 4 3 3 3 4 7 10 12 15 14 11 8 11 13 15 14 11 9 9 9 9 9 9 9 10 9 9 9 9 9 7 9 8 8 9 10 9 9 10 10 10 9 8 8 7 7 6 6 6 6 6 6 6 6 6 7 7 7 8 7 6 6 5 5 5 5 5 4 4 4 4 5 6 5 6 6 7 6 6 5 5
3 6 10 8 8 10 8 1 4 3 4 3 4 4 5 1 4 7 4 3 4 3 7 14 15 15 13 13 12 12 13 12 12 10 9 9 9 9 9 10 11 9 9 8 9 8 8 8 8 8 7 9 9 11 11 9 9 9 10 9 8 7 7 7 8 8 7 7 7 7 7 8 8 7 6 6 5 5 5 5 5 5 5 4 4 3 4 4 5 5 6 5 6 6 6 7 6
2 4 13 14 13 9 4 4 2 3 4 2 2 3 3 0 5 6 3 5 7 5 8 10 11 12 13 11 11 12 12 11 3 7 7 8 9 9 9 9 11 10 9 9 8 8 10 9 10 8 7 7 9 10 11 8 10 9 11 10 10 9 9 7 6 7 8 7 7 7 7 6 6 7 6 5 5 5 5 5 5 5 5 4 4 3 4 5 4 5 4 5 5 5 5 6 7
4 1 4 6 7 7 8 7 7 5 3 3 2 5 7 7 6 3 4 8 8 6 6 7 6 8 10 10 11 11 11 12 9 8 7 8 8 9 10 9 10 10 9 9 8 9 10 10 9 8 7 8 9 10 10 10 10 9 9 8 8 8 9 9 8 8 7 6 7 7 6 5 4 5 5 5 5 5 5 4 4 3 4 4 4 4 4 4 3 3 4 4 4 5 6 5 5
2 2 7 7 9 7 6 6 5 2 3 5 2 3 4 5 3 1 3 8 4 3 3 2 3 6 9 10 8 8 9 11 8 5 6 7 8 8 9 9 10 12 10 10 9 9 9 9 8 8 9 9 9 11 11 11 9 10 9 8 8 7 7 8 8 7 7 6 7 5 5 5 3 2 3 4 3 4 4 4 4 4 3 3 3 3 2 3 4 4 5 5 5 5 5 4 4
3 6 4 4 4 3 5 4 4 3 2 5 5 4 5 5 3 2 0 3 6 5 8 2 3 3 6 5 4 7 7 7 4 3 4 5 6 6 9 8 10 9 9 10 9 9 9 9 9 9 10 8 10 11 11 11 9 7 7 7 8 8 8 8 8 8 7 7 7 6 5 4 3 3 2 3 4 4 4 4 4 4 3 2 2 2 2 2 2 3 4 5 5 5 4 4 5
5 8 5 3 3 2 3 1 2 3 3 5 5 7 5 5 1 2 2 4 4 8 6 4 1 5 4 5 6 7 7 5 4 4 5 6 5 6 10 9 7 8 8 9 8 9 9 9 10 10 10 9 10 12 11 11 9 8 7 8 9 11 11 11 10 8 8 7 8 6 5 4 3 4 3 3 3 3 3 3 4 4 3 3 3 3 3 3 3 3 3 4 5 6 4 4 3
1 1 2 3 2 1 2 2 1 2 5 2 4 5 7 6 1 2 3 7 6 6 8 6 2 5 6 5 8 8 8 7 7 7 6 5 6 6 10 8 8 6 7 8 7 9 10 9 9 10 9 9 10 10 11 9 8 7 7 9 9 9 11 11 12 11 10 9 8 6 4 4 3 3 3 3 3 3 4 4 4 4 3 3 3 2 2 2 2 2 3 3 3 4 3 4 4
5 3 2 4 1 0 2 2 3 5 4 3 2 4 3 9 2 4 8 8 9 8 7 5 1 4 7 6 8 9 10 11 12 10 10 7 3 3 4 12 10 8 6 8 7 8 9 9 9 10 10 10 9 10 10 8 8 8 8 9 9 8 8 8 9 9 7 7 7 6 6 5 4 4 3 4 4 4 4 5 4 4 3 2 2 2 2 2 2 2 3 4 4 5 4 5 4
7 7 6 5 3 2 1 2 1 3 4 1 1 2 5 2 1 6 8 9 7 7 5 3 4 5 9 9 10 11 11 11 9 7 7 9 9 7 6 7 10 10 8 8 7 7 8 8 8 8 8 9 8 7 6 7 7 7 8 8 8 7 7 7 7 8 7 5 5 6 6 5 5 4 4 4 4 4 3 3 4 3 3 4 3 3 2 1 1 2 3 4 4 3 2 4 3
8 2 8 5 7 5 3 5 4 5 3 3 2 5 3 5 1 5 6 7 9 9 7 6 8 10 10 9 8 8 10 10 10 9 9 8 10 9 8 5 7 10 10 10 9 7 6 8 6 6 6 3 4 7 6 7 6 7 7 7 7 6 7 7 6 7 7 7 5 5 4 4 4 3 4 4 4 4 4 3 4 4 4 4 4 3 2 2 2 2 3 3 3 2 2 2 2
2 2 1 0 5 1 4 1 3 2 2 2 4 2 1 1 2 2 3 7 11 10 9 10 10 11 9 7 8 8 8 9 9 10 11 10 10 6 4 6 3 9 11 10 10 9 8 7 10 10 9 5 2 5 8 8 7 6 8 8 8 7 6 6 6 5 6 6 7 6 5 3 3 4 3 5 4 4 5 5 4 5 4 4 4 4 4 3 2 3 3 4 4 2 3 4 3
5 5 7 4 3 4 5 2 4 1 1 2 2 3 2 2 2 3 7 9 10 9 9 7 8 8 6 6 8 9 8 9 9 9 9 9 10 8 7 6 3 7 10 10 10 10 10 10 12 13 13 12 14 11 8 8 8 8 9 9 8 8 8 9 8 8 7 5 4 4 5 4 4 4 5 4 5 4 4 5 6 5 4 4 4 4 4 4 3 3 4 4 5 4 4 4 2
7 6 5 4 1 3 2 3 1 0 3 1 1 1 2 3 2 2 7 8 8 8 7 6 7 9 10 7 9 8 9 9 10 10 9 8 7 7 9 6 6 7 10 9 11 10 10 10 11 14 14 14 11 7 4 5 8 8 8 8 8 8 8 8 8 8 7 6 5 4 4 5 4 4 5 4 5 6 5 5 5 5 4 4 4 4 4 5 4 4 4 4 4 4 5 4 3
2 2 5 5 2 4 2 1 1 2 2 1 2 2 2 5 2 2 5 7 6 6 7 7 9 9 9 8 9 9 7 7 9 10 9 8 8 9 9 8 8 8 7 10 8 9 8 9 9 10 10 5 8 6 7 6 7 6 6 8 9 7 7 7 7 8 8 8 8 6 6 5 5 5 6 6 6 6 5 5 5 5 5 5 4 4 4 4 4 4 4 4 3 3 4 4 3
3 3 4 3 2 1 4 2 1 2 1 0 2 1 2 2 2 2 3 5 4 5 5 6 9 7 6 8 8 8 8 7 7 9 7 7 7 8 9 12 11 11 9 9 12 11 11 9 7 7 6 4 4 4 5 7 6 5 5 6 6 7 7 7 7 8 7 8 8 8 7 7 6 5 6 6 6 6 6 6 5 6 5 5 5 4 5 5 4 4 3 4 3 4 5 4 4
4 4 2 2 2 1 2 3 1 3 2 2 1 2 2 2 2 2 4 4 3 3 6 5 5 7 8 8 9 8 8 7 6 6 5 3 5 6 5 7 9 8 9 8 8 11 11 9 8 9 9 8 7 4 5 6 6 7 8 8 8 7 7 6 7 8 8 7 7 7 7 6 6 5 6 6 6 6 6 6 6 6 6 6 6 5 4 5 5 4 4 4 4 4 5 4 3
1 5 7 7 7 6 5 4 2 1 3 2 3 3 3 2 1 2 3 2 3 3 5 6 6 6 5 5 7 8 6 7 7 6 4 4 2 2 3 4 2 6 9 10 9 8 8 9 9 9 10 10 9 9 6 6 6 7 9 8 8 7 7 6 7 7 6 7 7 6 7 7 7 6 6 7 6 5 5 6 5 5 5 5 6 6 5 5 5 5 4 2 3 4 5 4 3
Wind_Direction
172 168 117 132 122 219 219 22 221 117 219 232 287 189 252 226 303 286 249 248 276 132 170 30 201 201 235 314 291 340 36 224 270 196 208 19 169 155 145 135 139 140 143 143 142 143 142 139 134 132 133 132 126 125 126 127 127 127 127 127 128 128 128 128 130 131 132 130 131 132 134 135 135 136 133 134 140 136 132 131 128 127 123 124 125 126 128 125 122 123 124 120 117 114 112 109 109
162 120 125 268 258 226 144 306 85 150 329 262 233 95 251 155 176 241 277 247 6 347 332 313 286 140 153 315 25 290 175 356 327 16 322 146 137 141 141 139 142 143 144 140 140 142 141 139 134 134 136 134 130 127 127 128 128 128 128 128 128 128 129 129 131 133 132 129 132 136 137 135 136 134 130 135 127 117 124 129 128 127 124 125 128 129 128 125 126 125 124 121 119 118 115 114 117
146 167 145 200 115 5 106 290 228 70 202 243 226 211 59 222 229 107 264 268 278 302 313 303 274 232 230 208 249 264 104 71 123 115 107 149 146 151 141 141 143 142 140 136 139 141 140 139 135 136 136 136 134 131 129 128 130 130 129 129 129 130 131 132 132 134 132 133 137 138 137 139 138 133 131 130 117 118 125 128 126 127 127 130 133 130 127 126 125 126 122 119 119 117 116 117 119
113 341 206 197 118 274 137 94 110 175 218 269 314 174 228 225 227 245 269 285 293 297 304 312 291 94 260 247 320 164 236 174 205 142 138 159 158 144 143 142 141 139 136 135 140 139 140 138 136 135 135 135 134 132 132 131 132 131 129 130 130 130 130 133 136 135 136 140 143 143 144 144 141 134 131 128 124 120 116 118 126 128 130 134 134 130 127 125 126 122 119 120 118 115 116 119 119
168 130 282 240 189 133 164 73 132 171 241 167 226 210 225 232 295 311 292 301 295 290 280 270 255 114 26 28 12 287 48 84 138 164 147 142 144 145 140 137 139 138 137 138 140 138 135 138 136 136 133 135 135 133 131 132 132 130 130 131 132 132 133 135 137 138 142 145 147 148 144 136 134 130 128 127 124 120 121 123 122 122 126 129 128 126 126 124 122 122 123 120 118 117 117 118 117
107 173 64 250 293 52 103 169 182 222 260 112 247 32 124 60 320 303 294 285 287 278 283 233 246 157 173 33 356 138 351 260 153 146 154 145 148 146 138 138 139 139 138 137 138 136 140 138 137 135 134 136 136 133 132 132 132 130 128 132 132 134 133 133 135 138 141 140 140 140 135 134 131 126 125 126 126 123 112 110 113 118 123 129 129 128 125 124 122 122 122 122 119 119 117 116 120
166 161 49 106 106 262 211 228 234 238 247 185 261 271 282 331 296 304 298 314 243 286 189 211 218 132 181 138 140 52 317 239 188 150 167 148 146 146 141 140 139 137 139 139 140 136 140 138 138 137 136 138 136 133 132 133 133 129 130 131 133 135 136 135 135 134 129 129 130 131 130 127 123 124 125 128 126 114 111 111 118 122 122 128 130 127 124 123 121 117 115 117 115 113 111 114 119
37 250 40 185 96 265 185 260 254 170 254 195 271 280 325 307 295 288 291 300 319 260 197 312 237 267 20 158 245 53 41 25 112 134 141 149 147 144 142 142 140 139 141 141 138 136 138 140 141 139 137 139 137 135 133 133 130 130 133 134 135 137 138 138 138 136 133 133 133 132 129 124 117 118 122 123 119 116 117 120 123 121 123 130 130 124 120 117 115 116 112 110 112 112 111 112 119
39 82 273 168 160 59 206 240 282 175 276 257 268 249 279 277 282 277 277 249 282 262 259 243 217 227 140 167 105 54 48 81 120 126 143 146 149 144 142 143 141 139 140 142 138 137 143 144 143 140 141 140 136 134 134 132 132 134 135 136 138 138 137 139 139 133 134 135 136 135 129 121 115 116 120 122 122 123 125 125 123 123 124 126 124 120 119 118 116 112 109 110 108 106 103 112 118
94 286 142 95 78 226 331 245 242 213 248 328 289 298 286 279 274 251 273 288 255 270 255 261 182 241 116 191 138 93 64 106 123 129 144 147 146 147 144 145 143 140 141 141 139 143 145 146 144 143 141 137 135 135 135 134 134 135 136 136 136 135 136 136 134 128 130 138 134 130 126 121 119 119 121 124 126 129 129 127 125 123 120 122 122 121 120 116 112 110 111 104 99 96 97 112 116
133 35 349 171 167 245 234 253 237 269 277 304 290 257 255 271 264 281 265 274 293 253 297 189 182 164 171 108 51 66 128 137 136 138 149 149 150 150 147 142 141 144 142 142 142 144 147 151 147 144 138 135 135 135 135 134 133 135 134 134 135 134 132 133 133 135 137 137 131 127 128 126 124 123 125 126 129 131 131 128 124 121 119 121 123 120 115 112 107 106 99 94 89 82 85 94 111
132 200 182 144 221 228 243 266 276 296 294 274 291 100 86 287 272 310 324 316 315 265 223 183 188 153 138 137 164 109 121 150 145 142 150 148 152 148 141 139 137 142 141 142 143 146 149 150 152 144 138 136 135 134 134 133 134 135 134 134 134 132 130 128 132 137 138 136 135 135 136 131 128 124 126 126 127 133 135 132 128 121 116 118 117 112 109 105 103 98 97 95 90 80 80 85 98
84 272 128 161 226 223 55 289 290 315 306 274 25 57 311 300 342 326 311 282 282 274 241 203 114 188 146 164 80 129 143 143 141 149 149 151 147 144 137 136 140 141 144 146 146 148 151 152 150 150 143 135 132 133 133 134 136 136 135 135 135 133 131 131 134 136 139 137 137 138 135 130 126 127 129 131 133 135 136 134 131 120 121 121 117 115 115 112 105 102 100 98 92 84 80 82 92
175 207 158 216 50 258 228 285 273 307 310 359 171 297 293 321 350 322 294 325 10 264 355 163 166 168 89 128 155 170 169 149 149 150 151 144 142 138 135 139 141 146 149 152 150 149 152 153 152 151 146 143 140 135 133 135 135 136 136 137 135 133 131 131 134 137 138 135 132 132 131 130 126 129 134 136 138 136 137 131 127 122 120 114 116 118 112 102 100 101 100 99 96 92 86 89 93
204 158 167 346 231 233 172 231 337 213 246 24 59 341 334 281 313 310 348 322 3 326 1 185 60 225 182 177 171 194 165 152 150 151 149 142 138 134 134 138 143 150 150 156 153 152 154 154 152 152 150 146 145 144 145 138 136 139 138 134 132 130 130 131 133 137 135 133 132 132 133 131 134 131 132 134 127 122 129 125 123 120 116 112 110 109 105 100 99 97 97 95 95 95 95 94 99
117 146 51 224 236 223 185 218 153 286 289 290 4 305 330 13 16 337 344 284 358 72 242 157 193 309 9 193 87 162 152 151 147 146 138 138 136 138 143 146 153 155 155 157 157 156 152 153 151 153 151 149 148 147 146 147 139 137 135 133 130 133 134 133 134 134 135 135 131 126 127 131 130 133 136 134 122 120 125 129 128 123 115 113 113 112 103 102 100 96 91 93 94 97 99 101 107
131 281 179 143 248 184 166 210 154 234 358 272 318 5 356 325 348 324 296 206 183 132 313 328 296 341 306 21 125 138 146 144 142 141 146 140 143 150 155 156 156 157 156 158 161 158 155 151 153 149 152 149 149 150 145 139 140 139 136 136 133 137 140 143 140 138 136 132 127 123 119 126 130 137 135 128 122 125 125 129 126 119 116 119 120 114 107 106 106 104 102 100 98 97 94 95 95
185 191 208 234 228 196 185 207 186 63 302 341 336 354 339 331 344 350 268 102 50 159 295 326 309 20 323 121 131 138 144 145 148 154 155 150 153 157 164 163 158 159 159 159 163 158 156 154 153 149 151 151 151 146 136 139 141 142 146 145 148 147 147 139 136 136 134 131 126 129 128 130 137 133 129 125 128 125 120 113 120 120 119 118 107 105 108 109 108 111 110 105 101 99 109 129 116
201 123 211 241 135 225 172 88 229 309 336 321 319 332 342 315 318 330 328 336 279 224 246 336 292 49 100 118 128 145 149 150 156 159 158 158 166 168 169 164 164 160 160 162 161 162 158 154 153 148 149 150 148 136 136 136 142 142 146 149 149 150 132 138 134 130 132 132 134 128 129 133 127 118 126 125 121 113 115 114 116 116 114 114 112 110 107 105 104 105 102 97 104 121 135 119 130
195 215 223 225 147 44 215 226 302 242 292 308 324 324 322 306 268 312 299 324 238 263 233 288 259 184 130 130 141 145 149 155 158 165 166 170 170 171 170 165 166 162 160 160 159 158 154 151 146 143 144 144 147 142 141 140 141 144 144 145 144 138 132 135 133 131 135 135 129 126 131 130 130 130 125 124 126 126 118 112 115 115 114 109 109 111 104 93 101 95 82 99 125 137 135 146 145
148 223 235 77 159 229 143 209 255 284 241 295 309 308 300 17 317 287 321 308 276 250 218 214 217 173 136 135 139 141 134 141 147 123 174 182 175 170 167 168 164 161 159 154 152 151 156 149 144 145 147 146 151 147 149 149 145 143 142 133 130 135 136 133 135 138 139 134 131 134 134 134 135 130 130 134 134 131 131 131 132 131 125 122 114 118 124 121 133 114 115 109 98 122 149 140 156
140 233 75 120 117 274 286 278 270 266 298 301 300 311 321 317 242 269 285 276 299 332 273 213 158 122 127 131 130 124 112 104 134 174 121 282 227 171 156 155 136 152 157 156 154 152 150 153 150 148 149 150 150 154 152 150 147 143 138 132 133 134 137 136 136 139 139 134 134 135 132 128 125 128 132 135 134 134 135 136 132 128 127 121 131 119 109 112 109 91 58 100 119 163 144 142 152
236 233 243 207 259 275 278 267 268 46 303 302 304 312 331 312 304 272 239 238 263 70 24 296 118 122 127 134 138 130 130 139 136 122 117 51 40 39 30 49 54 152 162 152 149 152 153 159 157 154 152 149 150 146 143 147 147 139 136 142 138 140 140 139 140 139 139 141 139 139 137 135 134 132 135 137 136 138 135 135 128 129 126 125 122 115 104 94 89 90 87 241 153 166 134 135 143
248 249 74 16 155 237 243 266 283 290 265 277 282 311 293 309 313 81 287 258 287 2 32 118 122 128 127 125 110 109 113 109 111 119 136 157 133 89 42 30 16 332 162 157 150 153 153 144 151 147 157 147 145 147 145 144 138 143 147 144 139 143 149 139 129 132 133 137 143 146 141 144 143 138 139 139 138 137 137 136 136 134 129 124 122 108 114 101 100 105 204 206 164 130 127 116 113
228 249 149 261 237 242 262 266 280 271 266 271 277 282 283 226 278 342 278 328 32 88 116 119 127 121 120 111 113 118 119 120 132 146 154 191 139 136 121 114 96 356 8 2 83 148 154 153 152 157 157 151 147 143 139 136 139 147 151 145 146 146 133 139 131 94 123 137 155 154 154 150 149 141 143 140 138 136 138 140 138 133 129 119 121 102 98 111 119 157 179 161 67 60 48 49 61
227 249 262 278 273 273 268 280 265 265 281 232 268 268 269 274 307 246 273 53 95 120 123 128 125 123 121 118 126 125 129 141 148 159 168 172 119 119 126 136 116 139 85 72 65 192 163 151 150 156 159 151 146 141 138 135 141 143 145 143 147 146 148 137 113 155 153 137 161 163 158 155 150 150 146 145 143 140 143 139 134 135 125 123 128 112 102 116 133 146 135 67 68 70 70 56 62
145 219 233 259 272 304 277 248 285 28 262 205 252 281 292 310 338 287 87 95 122 126 129 134 133 130 127 130 134 140 142 154 166 169 174 270 148 170 134 132 144 162 156 159 157 219 200 161 161 152 154 156 150 146 143 137 139 140 148 147 137 139 148 130 127 159 163 156 165 168 165 157 151 151 148 143 138 145 146 145 143 139 128 112 101 102 107 119 129 113 74 59 68 71 70 54 51
237 256 270 243 261 252 244 278 268 302 280 202 219 265 314 289 151 262 66 119 137 130 137 143 135 139 130 133 142 152 147 160 167 174 149 150 194 167 157 150 147 160 154 186 178 181 184 185 173 158 154 157 156 148 138 138 126 137 147 124 132 145 161 156 151 157 173 175 164 172 169 158 150 145 145 143 151 150 148 148 145 143 118 106 81 95 112 124 112 103 99 98 93 92 85 76 72
266 338 282 313 321 309 169 229 3 99 260 191 191 268 249 179 250 75 39 132 145 137 141 146 143 143 130 134 144 156 155 161 170 168 161 172 160 47 78 350 127 156 173 174 177 182 184 182 176 169 157 160 152 137 137 120 128 150 135 136 148 152 163 169 164 173 172 172 167 168 170 160 153 149 151 152 151 146 141 141 140 136 131 109 109 119 124 128 119 120 115 124 128 115 96 89 88
315 166 267 297 324 301 44 274 338 229 253 125 172 271 235 229 254 342 62 146 147 140 144 144 145 148 148 147 157 163 169 167 185 184 162 163 128 103 57 32 72 80 103 228 185 180 169 166 163 164 159 149 128 122 133 141 146 146 140 158 162 153 166 169 160 170 170 167 166 171 169 160 154 150 148 147 144 138 143 145 142 139 136 135 135 145 145 137 122 116 120 136 95 91 82 81 96
246 33 170 352 318 310 129 347 318 291 75 250 201 255 277 267 292 40 113 160 163 151 155 154 158 155 158 154 158 167 175 182 186 186 176 138 99 87 83 73 49 63 112 145 173 160 156 149 139 144 77 60 86 111 123 144 148 153 151 161 158 155 164 159 161 164 166 167 169 171 164 154 150 149 151 145 144 147 148 146 146 142 142 143 148 154 149 130 119 121 136 126 107 95 86 82 89
357 254 232 112 252 105 324 75 320 26 31 32 208 249 270 306 310 4 131 169 175 161 163 160 168 166 163 166 165 167 174 189 191 194 170 138 121 100 104 96 89 82 121 133 145 145 147 146 119 104 134 125 100 124 157 153 151 145 144 144 152 154 160 162 160 161 161 166 169 164 157 147 147 151 153 155 153 157 154 152 149 146 147 149 152 153 163 161 139 131 97 107 130 120 118 105 103
25 256 258 292 128 334 282 87 340 304 275 46 341 303 320 254 210 355 142 168 182 172 173 168 177 178 170 174 174 174 169 180 191 206 200 160 130 92 114 119 102 117 138 141 148 143 137 149 136 144 142 120 134 144 142 145 140 149 148 149 163 163 161 167 158 157 160 162 164 161 157 149 150 152 155 163 153 156 152 154 150 153 155 154 155 161 163 150 144 138 126 84 130 136 129 118 108
215 33 254 84 283 32 272 323 119 18 11 350 36 301 270 281 306 358 145 174 183 184 184 182 181 189 190 184 184 185 182 175 188 196 194 163 152 136 128 136 131 133 140 142 143 141 137 141 145 146 135 133 144 146 151 144 145 150 147 151 162 162 170 162 153 155 159 157 158 161 160 154 158 158 164 166 160 160 157 157 154 157 155 154 157 164 154 142 137 143 128 122 144 155 138 130 119
214 208 239 230 162 202 305 289 117 338 99 318 296 260 271 280 275 255 164 174 182 198 196 190 190 193 196 193 193 196 193 185 182 184 180 152 155 132 130 133 140 132 141 147 142 133 135 136 138 142 135 144 142 139 133 149 141 133 141 148 147 144 146 138 144 155 159 160 164 161 160 160 163 165 168 174 168 163 160 157 157 160 161 157 159 160 150 142 132 141 139 126 130 127 132 127 121
142 168 238 255 275 190 233 261 301 343 324 320 300 293 299 294 297 275 97 179 183 200 200 203 202 202 205 202 201 201 205 187 178 154 146 156 162 143 135 147 147 136 141 149 147 144 146 149 143 149 149 148 138 139 151 146 129 140 140 131 136 136 133 138 154 165 167 168 166 163 164 166 166 167 171 173 168 164 163 163 161 164 171 167 168 168 166 163 150 145 142 139 129 118 124 129 124
102 142 222 250 266 255 233 246 267 220 288 265 282 275 261 276 278 308 60 167 189 201 207 205 207 207 210 210 211 204 213 209 175 146 136 150 150 152 146 151 160 141 143 153 153 153 154 160 150 150 148 149 149 150 150 148 146 140 141 156 156 152 145 143 152 159 176 173 175 175 176 172 169 169 175 173 173 165 163 163 167 173 183 184 178 174 168 157 148 149 140 141 142 135 128 136 131
215 249 258 267 201 280 202 274 286 64 219 271 218 269 268 266 278 314 74 172 200 202 208 209 210 210 211 214 213 208 215 176 145 148 143 147 151 154 147 154 162 161 158 159 165 161 156 151 150 148 143 146 150 151 146 151 154 162 159 158 149 147 146 153 156 161 169 174 180 181 180 176 173 173 174 180 176 168 162 164 174 177 190 182 162 147 150 148 150 148 143 131 147 151 141 153 149
178 233 263 274 263 240 256 261 289 250 207 255 309 283 283 285 321 296 285 228 227 213 209 208 207 208 211 211 211 203 208 210 183 169 160 158 152 152 153 157 163 165 161 167 167 163 158 157 145 143 144 151 150 145 148 160 155 157 153 151 151 143 147 156 159 164 169 172 179 181 179 177 175 178 175 178 173 170 167 168 173 175 188 163 154 147 149 155 166 166 166 149 140 142 143 165 156
192 203 227 257 76 314 291 186 42 142 221 304 293 288 283 299 291 282 294 285 249 246 232 228 221 213 209 208 202 201 206 207 189 178 169 162 161 158 158 159 159 159 162 165 156 159 162 158 143 145 150 154 152 152 142 145 149 146 141 144 144 145 152 152 153 158 168 173 174 175 177 181 181 178 176 174 170 163 166 170 166 174 169 170 170 155 162 169 169 179 172 162 160 152 164 172 185
202 223 237 254 192 225 216 281 358 281 251 232 261 274 269 270 286 259 197 274 276 238 230 235 231 231 227 214 210 208 208 208 194 180 169 164 163 163 158 156 156 157 163 158 152 155 157 153 142 142 149 150 152 146 139 135 131 129 123 125 128 121 124 142 151 161 168 171 167 174 177 183 178 176 174 174 163 157 163 168 172 171 167 160 174 156 166 178 185 180 186 177 183 176 171 174 184
228 215 224 233 217 232 217 300 324 295 279 145 228 240 245 152 276 256 265 292 261 246 238 225 224 224 222 220 213 206 210 210 204 191 177 167 166 158 157 157 157 156 158 161 152 144 141 146 150 154 147 147 144 141 140 139 149 148 144 145 145 148 151 164 174 170 169 170 173 169 168 175 173 170 169 165 160 159 165 173 175 176 173 168 173 174 170 182 194 192 189 200 199 196 185 174 179
252 248 197 217 221 220 185 153 169 250 246 86 326 295 275 295 264 245 264 277 267 253 239 241 227 222 222 221 214 205 199 199 156 188 170 162 164 162 161 161 162 161 157 155 148 140 145 150 158 154 147 142 140 142 145 148 158 165 165 165 164 163 164 172 173 169 169 168 161 162 157 160 164 159 154 160 160 167 170 173 177 187 179 176 178 178 176 189 194 202 193 207 207 201 197 195 185
226 264 171 197 197 200 196 185 207 246 5 251 167 245 267 284 271 212 275 287 276 262 240 241 239 226 222 222 216 209 199 196 195 192 177 168 163 164 166 162 161 155 154 153 149 139 148 148 145 150 145 142 144 146 153 166 168 172 170 168 167 171 172 162 162 162 159 156 155 148 146 144 138 150 155 164 166 168 171 169 176 182 185 180 183 184 179 170 175 191 221 220 218 208 207 217 187
230 165 172 173 194 202 164 187 199 247 293 271 170 143 236 234 235 137 318 296 310 26 30 236 232 230 228 220 210 191 196 205 205 187 171 166 162 161 163 162 162 148 163 167 149 142 148 143 143 151 149 145 149 156 165 176 176 171 171 170 167 167 157 150 150 151 150 148 137 130 132 135 121 113 151 150 154 161 163 168 173 178 185 177 189 177 177 175 189 195 211 215 216 212 216 222 196
254 131 104 83 104 107 182 183 185 190 214 253 154 197 264 268 253 261 126 268 314 355 0 25 158 212 225 203 164 160 163 174 195 162 154 154 155 156 159 147 156 148 161 157 143 138 148 148 151 157 151 151 156 165 175 177 170 161 160 161 148 151 152 147 148 146 146 148 135 134 130 142 151 153 143 151 159 165 163 161 165 160 153 147 163 147 144 165 184 194 214 228 222 211 202 214 222
97 135 125 104 79 95 87 82 179 167 235 249 129 200 245 291 311 321 356 29 335 322 330 15 130 162 196 157 140 139 137 121 131 128 134 139 136 152 137 145 147 136 158 154 152 143 147 149 157 164 157 157 164 173 177 172 167 167 163 158 149 151 154 148 147 147 146 146 146 140 148 146 152 148 151 150 147 141 133 138 138 135 130 127 136 146 160 171 171 181 162 200 217 212 193 193 205
216 110 163 141 125 128 148 111 206 227 255 82 209 216 210 232 189 103 353 333 326 306 295 306 288 194 151 154 141 135 121 123 118 114 104 82 95 111 135 151 143 153 165 155 159 146 150 152 159 161 162 163 172 175 179 165 163 164 159 155 150 147 152 157 159 155 156 151 149 149 142 142 141 135 141 139 130 128 128 126 120 126 128 137 137 129 142 163 161 160 158 174 175 188 184 184 187
195 179 183 219 152 143 199 185 205 217 249 105 138 177 170 234 325 355 343 351 347 330 296 289 262 189 154 141 142 133 130 121 110 110 114 124 161 114 143 160 148 165 191 162 163 148 149 154 161 163 167 169 172 175 175 161 162 161 160 154 146 148 151 148 147 146 151 152 152 150 155 152 142 144 147 143 131 141 139 136 143 142 135 122 114 129 127 142 150 151 141 151 162 174 179 186 179
177 190 183 181 185 144 230 175 352 316 255 207 213 129 277 346 319 18 354 357 4 6 351 238 169 150 145 121 115 122 131 135 135 141 146 140 145 178 179 186 167 157 182 180 175 158 153 155 160 161 167 173 166 168 166 166 167 161 158 151 147 150 145 145 145 147 151 149 152 159 163 155 153 149 150 150 141 142 131 124 125 115 111 119 121 109 111 121 138 147 139 144 150 156 165 184 176
190 124 183 204 175 183 198 198 226 241 289 80 77 173 219 201 81 6 11 8 37 40 64 104 120 119 126 128 117 122 133 140 147 143 144 142 155 170 192 216 180 155 164 181 181 179 162 159 133 99 58 16 158 161 171 178 167 158 156 149 151 153 147 152 150 149 154 155 162 163 160 149 144 144 147 130 136 130 120 120 119 122 125 122 123 120 115 122 128 122 103 102 103 112 130 147 127
154 163 66 233 225 149 246 64 263 232 181 162 169 256 343 308 43 6 19 39 45 35 59 92 105 122 131 135 128 124 129 139 145 143 139 124 141 160 168 209 182 171 163 175 176 176 171 137 117 123 128 109 292 226 183 174 167 161 156 156 159 152 144 143 143 152 160 163 161 165 154 147 128 128 122 135 138 142 140 133 131 126 129 130 129 131 136 126 112 104 98 91 91 88 104 101 109
158 166 199 214 27 131 92 109 51 71 339 224 61 277 207 240 218 58 43 47 40 33 39 70 115 125 123 122 119 119 122 127 136 137 144 131 145 181 181 188 153 171 164 168 174 169 152 141 147 142 141 163 197 195 192 162 163 162 165 164 158 154 153 157 159 163 162 153 148 147 137 133 123 128 133 136 140 144 143 141 137 133 132 131 128 123 117 112 109 100 100 98 93 92 87 85 83
115 212 202 80 183 29 147 228 86 196 242 236 115 220 283 208 179 68 56 42 28 32 46 54 92 106 98 89 109 109 95 104 133 139 140 143 143 159 175 170 156 177 154 164 157 161 156 162 156 157 162 185 186 165 160 161 161 171 167 164 162 160 161 157 152 154 152 147 142 136 129 136 142 134 137 143 146 147 145 149 134 132 133 131 124 116 112 117 114 98 93 88 94 106 102 96 89
254 331 135 193 169 204 38 129 209 175 211 243 171 273 257 253 66 65 57 30 360 10 57 85 95 85 95 96 92 92 99 104 122 134 144 163 161 147 161 173 166 162 174 163 144 133 158 173 173 169 171 170 158 162 172 171 173 167 165 166 162 158 157 153 150 148 152 154 154 156 153 138 136 142 144 149 155 155 154 146 136 137 137 131 125 116 114 110 108 107 103 103 117 119 103 96 88
96 140 141 10 260 186 175 198 2 247 221 118 200 182 231 176 49 50 23 32 355 348 69 93 108 109 94 86 77 91 90 86 117 140 158 176 176 163 160 174 168 158 164 161 152 153 173 179 166 153 137 168 190 160 161 162 166 152 147 148 157 160 157 158 153 154 159 156 153 154 148 150 154 153 151 156 160 162 156 147 146 140 135 132 124 114 111 110 103 96 104 104 97 95 92 89 98
151 192 188 164 55 325 7 63 259 260 177 201 193 215 187 68 355 342 17 25 33 8 83 69 87 99 111 111 117 116 115 118 123 139 158 151 168 171 168 173 175 152 140 137 149 170 178 170 170 163 176 177 179 181 181 168 155 157 156 163 159 155 155 158 159 165 159 152 150 155 156 147 143 154 151 158 165 161 155 151 148 146 139 134 126 119 117 114 109 103 91 92 98 99 101 95 95
248 198 196 195 152 168 186 207 97 263 216 189 186 227 81 77 317 15 28 74 79 92 117 99 60 57 73 118 119 117 114 108 89 68 66 70 67 86 53 76 102 161 155 145 150 175 170 161 172 178 184 189 176 180 180 165 168 159 164 161 158 157 161 163 162 163 156 153 155 157 144 147 156 154 164 158 162 152 153 152 145 137 129 129 128 125 125 119 113 106 95 81 100 106 102 101 91